TimeCST,TemperatureF,Dew PointF,Humidity,Sea Level PressureIn,VisibilityMPH,Wind Direction,Wind SpeedMPH,Gust SpeedMPH,PrecipitationIn,Events,Conditions,WindDirDegrees,DateUTC
12:53 AM,54.0,33.1,45,30.13,10.0,SSE,16.1,-,N/A,,Clear,160,2012-11-19 06:53:00
1:53 AM,52.0,37.0,57,30.14,10.0,South,18.4,27.6,0.00,Rain,Light Rain,180,2012-11-19 07:53:00
2:53 AM,48.9,42.1,77,30.13,10.0,South,17.3,27.6,0.00,,Overcast,180,2012-11-19 08:53:00
3:53 AM,48.0,43.0,83,30.11,10.0,South,17.3,27.6,0.00,,Mostly Cloudy,180,2012-11-19 09:53:00
4:53 AM,46.9,43.0,86,30.12,10.0,South,17.3,-,N/A,,Mostly Cloudy,180,2012-11-19 10:53:00
5:53 AM,48.0,43.0,83,30.12,10.0,South,16.1,-,N/A,,Mostly Cloudy,180,2012-11-19 11:53:00
6:53 AM,46.9,43.0,86,30.13,10.0,South,10.4,-,N/A,,Partly Cloudy,170,2012-11-19 12:53:00
7:53 AM,48.0,43.0,83,30.14,10.0,South,9.2,-,N/A,,Mostly Cloudy,170,2012-11-19 13:53:00
8:53 AM,51.1,44.1,77,30.15,10.0,South,15.0,-,N/A,,Clear,180,2012-11-19 14:53:00
9:53 AM,54.0,43.0,66,30.15,10.0,South,17.3,26.5,N/A,,Clear,190,2012-11-19 15:53:00
10:53 AM,57.9,44.1,60,30.14,10.0,SSW,16.1,-,N/A,,Clear,200,2012-11-19 16:53:00
11:53 AM,60.1,45.0,57,30.11,10.0,SSW,15.0,19.6,N/A,,Clear,200,2012-11-19 17:53:00
12:53 PM,61.0,46.0,58,30.09,10.0,SSW,13.8,-,N/A,,Clear,210,2012-11-19 18:53:00
1:53 PM,62.1,46.0,56,30.07,10.0,South,12.7,-,N/A,,Clear,190,2012-11-19 19:53:00
2:53 PM,63.0,46.9,56,30.06,10.0,South,12.7,-,N/A,,Clear,190,2012-11-19 20:53:00
3:53 PM,63.0,46.9,56,30.07,10.0,SSW,8.1,-,N/A,,Clear,210,2012-11-19 21:53:00
4:53 PM,54.0,46.0,75,30.09,10.0,South,5.8,-,N/A,,Clear,180,2012-11-19 22:53:00
5:53 PM,52.0,46.0,80,30.09,10.0,SSE,8.1,-,N/A,,Clear,160,2012-11-19 23:53:00
6:53 PM,52.0,46.0,80,30.10,10.0,South,9.2,-,N/A,,Clear,180,2012-11-20 00:53:00
7:53 PM,50.0,45.0,83,30.11,10.0,SSW,3.5,-,N/A,,Clear,200,2012-11-20 01:53:00
8:53 PM,46.9,44.1,90,30.11,10.0,SSW,6.9,-,N/A,,Clear,210,2012-11-20 02:53:00
9:53 PM,51.1,46.0,83,30.11,10.0,SW,4.6,-,N/A,,Clear,230,2012-11-20 03:53:00
10:53 PM,48.9,44.1,83,30.11,10.0,West,4.6,-,N/A,,Clear,270,2012-11-20 04:53:00
11:53 PM,48.9,43.0,80,30.12,10.0,Calm,Calm,-,N/A,,Clear,0,2012-11-20 05:53:00